Lemur-2 Mario-Sousa

operational
NORAD ID: 67365 Int'l Des: 2026-004 Owner: SPIREL Country: L Constellation: spire
LEOCIRCULARRETROGRADESSO

Lemur-2 Mario-Sousaについて

説明を読み込み中...

リアルタイム位置

3D地球を読み込み中...

次回通過

高度履歴

Altitude vs Time

uPlot chart will show altitude changes over time

軌道要素

1 67365U 26004C 26071.22323401 .00006257 00000-0 69315-3 0 9999
2 67365 97.8004 71.3349 0010342 99.0573 261.1814 14.87619847 8878
Epoch: Mar 12, 2026 • Age: 36 hours

現在のステータス

高度 608.9 km
速度 7.55 km/s
衛星直下点 0.15°N, 80.99°E
打ち上げ日 Jan 11, 2026
運用期間 0.1 years
タイプ other

技術仕様

分類 Payload
質量 4.60 kg
乾燥質量 4.60 kg
総質量 4.60 kg
長さ 0.30 m
直径 0.10 m
スパン 0.30 m
形状 Box+2 pan
製造者 SPIREG
バスタイプ Cubesat 3U
フェーズステータス In Orbit
所有者/国 SPIREL/L

大規模コンステレーション

Loading constellations...